Key West NAF, FL

6:21 PM EDT on August 17, 2017 (GMT -0400)
Key West Naval Air Station

Weather History for KNQX - October, 2013

Change the Weather History Date:

Friday, October 4, 2013

  Actual Average Record
Temperature  
Mean Temperature 85 °F -  
Max Temperature 88 °F 86 °F 91 °F (1962)
Min Temperature 82 °F 77 °F 71 °F (1950)
Cooling Degree Days 20    
Growing Degree Days 35 (Base 50)    
Moisture  
Dew Point 75 °F    
Average Humidity 75    
Maximum Humidity 82    
Minimum Humidity 67    
Precipitation  
Precipitation 0.00 in - - ()
Sea Level Pressure  
Sea Level Pressure 30.00 in    
Wind  
Wind Speed 11 mph (East)    
Max Wind Speed 14 mph    
Max Gust Speed -    
Visibility 10 miles    
Events      
Averages and records for this station are not official NWS values.
T = Trace of Precipitation, MM = Missing Value Source: NWS Daily Summary

Daily Weather History Graph

Daily Weather History Graph

Search for Another Location

Airport or City:

Trip Planner

Search our weather history database for the weather conditions in past years. The results will help you decide how hot, cold, wet, or windy it might be!

Date:

Astronomy

Oct. 04, 2013 Rise Set
Actual Time 7:20 AM EDT 7:10 PM EDT
Civil Twilight 6:57 AM EDT 7:33 PM EDT
Nautical Twilight 6:30 AM EDT 7:59 PM EDT
Astronomical Twilight 6:04 AM EDT 8:25 PM EDT
Moon 6:53 AM EDT (10/4) 6:55 PM EDT (10/4)
Length of Visible Light 12h 35m
Length of Day
11h 50m
Waning Crescent, 0% of the Moon is Illuminated
Oct 4
Waning Crescent
Oct 4
New
Oct 11
First Quarter
Oct 18
Full
Oct 26
Last Quarter

Hourly Weather History & Observations

Time (EDT) Temp. Heat Index Dew Point Humidity Pressure Visibility Wind Dir Wind Speed Gust Speed Precip Events Conditions
12:53 AM 82.0 °F 89.4 °F 75.9 °F 82% 30.01 in - ENE 9.2 mph - N/A   Mostly Cloudy
1:10 AM 82.4 °F 89.5 °F 75.2 °F 79% 30.01 in - East 10.4 mph - N/A   Mostly Cloudy
1:20 AM 82.4 °F 89.5 °F 75.2 °F 79% 30.01 in - East 11.5 mph - N/A   Scattered Clouds
1:53 AM 82.0 °F 88.6 °F 75.0 °F 79% 29.99 in - East 10.4 mph - N/A   Clear
2:53 AM 82.0 °F 88.6 °F 75.0 °F 79% 29.99 in - East 10.4 mph - N/A   Clear
3:53 AM 82.0 °F 88.6 °F 75.0 °F 79% 29.98 in - East 9.2 mph - N/A   Scattered Clouds
4:53 AM 82.0 °F 87.9 °F 73.9 °F 76% 29.97 in - East 9.2 mph - N/A   Clear
5:53 AM 82.0 °F 88.6 °F 75.0 °F 79% 29.97 in - East 11.5 mph - N/A   Partly Cloudy
6:02 AM 82.4 °F 88.2 °F 73.4 °F 74% 29.98 in 10.0 mi East 9.2 mph - N/A   Overcast
6:53 AM 82.0 °F 87.9 °F 73.9 °F 76% 29.99 in 10.0 mi East 11.5 mph - N/A   Overcast
7:53 AM 82.0 °F 87.9 °F 73.9 °F 76% 30.00 in 10.0 mi East 10.4 mph - N/A   Overcast
8:53 AM 84.0 °F 91.9 °F 75.0 °F 74% 30.01 in 10.0 mi East 12.7 mph - N/A   Mostly Cloudy
9:53 AM 86.0 °F 96.0 °F 75.9 °F 72% 30.02 in 10.0 mi East 12.7 mph - N/A   Mostly Cloudy
10:53 AM 86.0 °F 95.1 °F 75.0 °F 70% 30.03 in 10.0 mi ESE 12.7 mph - N/A   Mostly Cloudy
11:53 AM 87.1 °F 97.3 °F 75.9 °F 69% 30.03 in 10.0 mi East 11.5 mph - N/A   Mostly Cloudy
12:53 PM 88.0 °F 98.5 °F 75.9 °F 67% 30.02 in 10.0 mi ESE 12.7 mph - N/A   Mostly Cloudy
1:53 PM 87.1 °F 97.3 °F 75.9 °F 69% 30.00 in 10.0 mi East 13.8 mph - N/A   Mostly Cloudy
2:53 PM 88.0 °F 98.5 °F 75.9 °F 67% 29.98 in 10.0 mi East 13.8 mph - N/A   Mostly Cloudy
3:53 PM 87.1 °F 96.3 °F 75.0 °F 67% 29.98 in 10.0 mi East 11.5 mph - N/A   Mostly Cloudy
4:53 PM 84.9 °F 93.3 °F 75.0 °F 72% 29.97 in 10.0 mi East 11.5 mph - N/A   Mostly Cloudy
5:53 PM 84.0 °F 91.2 °F 73.9 °F 72% 29.96 in 10.0 mi East 11.5 mph - N/A   Mostly Cloudy
6:53 PM 82.9 °F 89.4 °F 73.9 °F 74% 29.98 in 10.0 mi ENE 11.5 mph - N/A   Mostly Cloudy
7:53 PM 82.9 °F 90.2 °F 75.0 °F 77% 29.99 in 10.0 mi East 8.1 mph - N/A   Mostly Cloudy
8:53 PM 82.9 °F 89.4 °F 73.9 °F 74% 30.01 in 10.0 mi East 9.2 mph - N/A   Mostly Cloudy
9:53 PM 82.0 °F 88.6 °F 75.0 °F 79% 30.02 in 10.0 mi East 10.4 mph - N/A   Mostly Cloudy
10:53 PM 82.0 °F 87.9 °F 73.9 °F 76% 30.02 in 10.0 mi East 10.4 mph - N/A   Partly Cloudy
11:53 PM 82.0 °F 87.9 °F 73.9 °F 76% 30.01 in 10.0 mi East 10.4 mph - N/A   Clear